Location: Unnamed
(23.5608°S, 46.6833°W)
Time: 16:02:40
(UTC-03:00)

VELOX 1 - Pass Details

Date: 05 April 2023
Orbit: 617 x 630 km, 98.4° (Epoch: 01 June)

Event Time Altitude Azimuth Distance (km) Brightness Sun altitude
Rises 18:48:05 0° 339° (NNW) 2,884 ? -11.3°
Reaches altitude 10° 18:50:55 10° 318° (NW) 1,990 ? -12.0°
Maximum altitude 18:53:45 17° 277° (W) 1,582 ? -12.6°
Drops below altitude 10° 18:56:38 10° 236° (SW) 2,013 ? -13.3°
Sets 18:59:32 0° 215° (SW) 2,933 ? -14.0°
